Regional Weather Roundup
Issued by NWS

Home | Current Version | Previous Version | Graphics & Text | Print | Product List | Glossary On
Versions: 1 2 3 4 5 6 7 8 9 10 11 12 13 14 15 16 17 18 19 20 21 22 23 24 25 26 27 28 29 30 31 32 33 34 35 36 37 38 39 40 41 42 43 44 45 46 47 48 49 50
000
ASUS43 KMPX 221901
RWRMN
WEATHER ROUNDUP FOR MINNESOTA
NATIONAL WEATHER SERVICE TWIN CITIES/CHANHASSEN MN
100 PM CST WED FEB 22 2017


NOTE: "FAIR" INDICATES FEW OR NO CLOUDS BELOW 12,000 FEET WITH NO
SIGNIFICANT WEATHER AND/OR OBSTRUCTIONS TO VISIBILITY. N/A MEANS
CURRENT SKY AND/OR WEATHER CONDITIONS ARE NOT AVAILABLE.

MNZ060>063-068>070-222000-
   Twin Cities Metro

CITY           SKY/WX    TMP DP  RH WIND       PRES   REMARKS
TWIN CITIES    CLOUDY    52  42  69 CALM      29.55S
ST PAUL        CLOUDY    51  44  77 CALM      29.55F
CRYSTAL        CLOUDY    48  41  76 CALM      29.53F
BLAINE         PTSUNNY   48  46  93 CALM      29.55F
LAKEVILLE      CLOUDY    52  45  76 N7        29.55S
EDEN PRAIRIE   CLOUDY    51  44  77 CALM      29.53F
SOUTH ST PAUL  PTSUNNY   52  42  69 NE3       29.55R
LAKE ELMO      FAIR      50  43  76 CALM      29.55F
$$
MNZ001>005-007-008-013>017-022>024-027-028-222000-
   Northwest Minnesota

CITY           SKY/WX    TMP DP  RH WIND       PRES   REMARKS
BEMIDJI        LGT RAIN  33  32  96 N10       29.66F WCI  25
HALLOCK        CLOUDY    36  28  75 N12       29.81S
ROSEAU         CLOUDY    34  27  75 N14       29.77S WCI  24
WARROAD        CLOUDY    34  28  80 N8        29.77S WCI  27
THIEF RVR FALL FLURRIES  33  29  85 N15       29.75R WCI  23
CROOKSTON      CLOUDY    32  32 100 N15G25    29.77R WCI  22
FOSSTON        CLOUDY    34  32  93 N16G22    29.69F WCI  23
DETROIT LAKES  LGT RAIN  37  37 100 NW7       29.63S
MOORHEAD       LGT SNOW  34  32  93 N15       29.71R WCI  24
PARK RAPIDS    CLOUDY    39  35  86 N10       29.60F
MAHNOMEN       CLOUDY    34  34  99 N15G23    29.67R WCI  24
$$
MNZ006-009>011-018-025>026-222000-
   North Central Minnesota

CITY           SKY/WX    TMP DP  RH WIND       PRES   REMARKS
BAUDETTE       CLOUDY    33  29  85 N10       29.73S WCI  25
FLAG ISLAND    CLOUDY    30  25  80 N13       29.77R WCI  20
INTL FALLS     LGT SNOW  34  31  88 N7        29.70F FOG     WCI  28
WASKISH        MIX PCPN  34  32  93 N9        29.71S WCI  26
BIG FORK       RAIN      36  32  87 N8        29.67R
LONGVILLE      LGT RAIN  37  36  93 N3        29.63S
GRAND RAPIDS   CLOUDY    38  33  82 N12       29.64S
CRANE LAKE     CLOUDY    36  32  87 NW5       29.69S
ORR            CLOUDY    37  30  75 CALM      29.64F
COOK           CLOUDY    37  34  87 CALM      29.65S
WALKER         DRIZZLE   36  34  93 N5        29.63F
$$
MNZ012-019>021-037-222000-
   Northeast Minnesota

CITY           SKY/WX    TMP DP  RH WIND       PRES   REMARKS
DULUTH         PTSUNNY   46  36  68 E7        29.59F
ELY            PTSUNNY   37  32  81 NE3       29.63S
HIBBING        CLOUDY    40  35  83 N8        29.61F
EVELETH        MOSUNNY   42  33  72 N9        29.62F
DULUTH HARBOR  CLOUDY    39  36  87 CALM      29.63S
TWO HARBORS    CLOUDY    46  37  71 E6        29.58F
SILVER BAY     CLOUDY    41  36  81 E6        29.59F
GRAND MARAIS     N/A     40  33  76 CALM      29.64F
G MARAIS ARPRT CLOUDY    41  28  60 N7        29.61F
$$
MNZ029>031-032-039>041-046>048-054>057-064-222000-
   West Central Minnesota

CITY           SKY/WX    TMP DP  RH WIND       PRES   REMARKS
FERGUS FALLS   RAIN      34  34 100 NW25G41   29.70R WCI  21
WHEATON        PTSUNNY   39  36  87 NW17G26   29.66F
MORRIS         CLOUDY    46  43  87 NW13      29.60R
ALEXANDRIA     MOSUNNY   47  39  74 NE12      29.56F
ELBOW LAKE     LGT RAIN  40  39  95 NW16G23   29.65R
WADENA         LGT RAIN  37  37 100 NE6       29.58F
GLENWOOD       CLOUDY    50  41  71 NE6       29.55F
APPLETON       PTSUNNY   50  41  71 NW9       29.60R
BENSON         MOSUNNY   55  37  50 NW5       29.59S
ORTONVILLE     CLOUDY    43  37  81 NW16G23   29.63R
MADISON        CLOUDY    48  43  81 NW14      29.61R
WILLMAR        FAIR      50  45  81 CALM      29.57F
$$
MNZ033>034-036-042>043-049>051-058-059-222000-
   Central Minnesota

CITY           SKY/WX    TMP DP  RH WIND       PRES   REMARKS
ST CLOUD       SUNNY     52  42  69 VRB6      29.55F
SAUK CENTRE    FAIR      49  39  68 NE10      29.55F
PAYNESVILLE    SUNNY     49  42  76 E5        29.55F
AITKIN         CLOUDY    46  37  71 N6        29.58S
PINE RIVER     LGT RAIN  39  36  87 CALM      29.67R
BRAINERD       LGT RAIN  43  38  82 N9        29.60S
STAPLES        DRIZZLE   39  39 100 N8        29.59F
LONG PRAIRIE   FAIR      46  39  76 N9        29.56F
LITTLE FALLS   MOSUNNY   46  37  71 N7        29.57F
LITCHFIELD     SUNNY     50  45  81 CALM      29.57R
BUFFALO        FOG       44  42  95 NE5       29.56F VSB 1/2
MAPLE LAKE     CLOUDY    47  45  93 SE3       29.56F FOG
HUTCHINSON     CLOUDY    51  47  86 CALM      29.56F
$$
MNZ037-044-045-052-053-222000-
   East Central Minnesota

CITY           SKY/WX    TMP DP  RH WIND       PRES   REMARKS
PRINCETON      CLOUDY    52  43  71 NE6       29.55F
MORA           MOSUNNY   48  41  76 NE5       29.57F
CAMBRIDGE      CLOUDY    48  43  81 N5        29.55S
RUSH CITY      CLOUDY    45  45 100 N6        29.57R
MOOSE LAKE     CLOUDY    46  36  66 NE7       29.57F
HINCKLEY       CLOUDY    46  43  87 CALM      29.57F
CLOQUET        CLOUDY    46  36  66 E5        29.59F
MCGREGOR       CLOUDY    45  37  76 N3        29.60S
$$
MNZ071>073-080-081-089-090-097-098-222000-
   Southwest Minnesota

CITY           SKY/WX    TMP DP  RH WIND       PRES   REMARKS
MONTEVIDEO     CLOUDY    48  46  93 NW10      29.61R
GRANITE FALLS  PTSUNNY   50  46  86 W12       29.59F
CANBY          PTSUNNY   49  44  80 W13       29.61S
MARSHALL       SUNNY     56  45  66 W8        29.58F
REDWOOD FALLS  SUNNY     56  45  66 SW6       29.55F
OLIVIA         SUNNY     54  46  76 SW5       29.55F
PIPESTONE      SUNNY     61  39  44 NW14      29.59F
WINDOM         SUNNY     61  45  55 W10       29.58F
WORTHINGTON    SUNNY     57  44  62 W12       29.60F
JACKSON        MOSUNNY   55  43  62 NW7       29.59F
TRACY          SUNNY     60  46  60 W8        29.58F
SLAYTON        SUNNY     57  43  60 W12       29.60F
$$
MNZ065>067-074>077-082>085-091>093-222000-
   South Central Minnesota

CITY           SKY/WX    TMP DP  RH WIND       PRES   REMARKS
MANKATO          N/A     55  46  71 NW10      29.57R
NEW ULM        MOSUNNY   54  45  71 NW5       29.56F
ST JAMES         N/A     57  46  67 NW9       29.58F
FAIRMONT       SUNNY     56  45  66 NW15      29.57S
GLENCOE        CLOUDY    51  48  90 CALM      29.55F
FARIBAULT      CLOUDY    54  45  71 E5        29.53F
OWATONNA       MOSUNNY   57  43  58 NE6       29.54F
WASECA         MOSUNNY   54  43  66 E5        29.55F
ALBERT LEA     MOSUNNY   55  43  62 NW6       29.54F
$$
MNZ078>079-086>088-094>096-222000-
   Southeast Minnesota

CITY           SKY/WX    TMP DP  RH WIND       PRES   REMARKS
ROCHESTER      PTSUNNY   53  43  68 W6        29.57F
RED WING       MOSUNNY   54  37  54 SE6       29.54F
STANTON        PTSUNNY   55  43  64 SE5       29.52F
DODGE CENTER   MOSUNNY   54  43  66 CALM      29.56S
WINONA         PTSUNNY   55  39  54 W3        29.57S
AUSTIN         PTSUNNY   52  43  71 CALM      29.53F
PRESTON        CLOUDY    51  40  65 S5        29.56F
$$
ABBREVIATIONS USED IN REMARKS
   TC - TEMPERATURES IN CELSIUS
  WCI - WIND CHILL INDEX
   HX - HEAT INDEX
  VSB - VISIBILITY
$$




USA.gov is the U.S. government's official web portal to all federal, state and local government web resources and services.